Weston, WY

9:36 PM MST on February 07, 2016 (GMT -0700)
Gillette-Campbell County

Weather History for KGCC - November, 2013

Change the Weather History Date:

Friday, November 1, 2013

  Actual Average Record
Temperature  
Mean Temperature 40 °F 40 °F  
Max Temperature 49 °F 53 °F 74 °F (1965)
Min Temperature 30 °F 27 °F -2 °F (1991)
Degree Days  
Heating Degree Days 25 26  
Month to date heating degree days 25 26  
Since 1 July heating degree days 843 935  
Cooling Degree Days 0 0  
Month to date cooling degree days 0 0  
Year to date cooling degree days 615 502  
Moisture  
Dew Point 26 °F    
Average Humidity 61    
Maximum Humidity 82    
Minimum Humidity 40    
Precipitation  
Precipitation T in 0.02 in 0.35 in (1933)
Month to date precipitation T 0.02  
Year to date precipitation 18.56 12.96  
Sea Level Pressure  
Sea Level Pressure 30.09 in    
Wind  
Wind Speed 14 mph (WNW)    
Max Wind Speed 30 mph    
Max Gust Speed 40 mph    
Visibility 10 miles    
Events      
T = Trace of Precipitation, MM = Missing Value Source: NWS Daily Summary

Daily Weather History Graph

Daily Weather History Graph

Search for Another Location

Airport or City:

Trip Planner

Search our weather history database for the weather conditions in past years. The results will help you decide how hot, cold, wet, or windy it might be!

Date:

Astronomy

Nov. 01, 2013 Rise Set
Actual Time 7:39 AM MDT 5:51 PM MDT
Civil Twilight 7:09 AM MDT 6:21 PM MDT
Nautical Twilight 6:35 AM MDT 6:55 PM MDT
Astronomical Twilight 6:01 AM MDT 7:29 PM MDT
Moon 5:30 AM MDT (11/1) 4:48 PM MDT (11/1)
Length of Visible Light 11h 11m
Length of Day
10h 11m
Waning Crescent, 4% of the Moon is Illuminated
Nov 1
Waning Crescent
Nov 3
New
Nov 9
First Quarter
Nov 17
Full
Nov 25
Last Quarter

Hourly Weather History & Observations

Time (MDT) Temp. Windchill Dew Point Humidity Pressure Visibility Wind Dir Wind Speed Gust Speed Precip Events Conditions
12:53 AM 39.0 °F 29.9 °F 32.0 °F 76% 29.88 in 10.0 mi WNW 17.3 mph 26.5 mph N/A   Overcast
1:53 AM 37.0 °F 29.8 °F 30.9 °F 79% 29.92 in 10.0 mi WNW 10.4 mph - N/A   Overcast
2:53 AM 36.0 °F 29.6 °F 30.9 °F 82% 29.94 in 10.0 mi NW 8.1 mph - N/A   Mostly Cloudy
3:53 AM 33.1 °F 25.5 °F 28.9 °F 85% 29.97 in 10.0 mi West 9.2 mph - N/A   Scattered Clouds
4:53 AM 36.0 °F 26.3 °F 28.0 °F 73% 29.97 in 10.0 mi WNW 16.1 mph - N/A   Clear
5:53 AM 37.0 °F 27.4 °F 27.0 °F 67% 29.99 in 10.0 mi WNW 17.3 mph 25.3 mph N/A   Clear
6:53 AM 37.0 °F 25.9 °F 27.0 °F 67% 30.05 in 10.0 mi NW 23.0 mph 27.6 mph N/A   Mostly Cloudy
7:53 AM 36.0 °F 28.0 °F 30.0 °F 79% 30.07 in 10.0 mi WNW 11.5 mph - N/A   Overcast
8:53 AM 36.0 °F 25.6 °F 30.9 °F 82% 30.09 in 10.0 mi WNW 18.4 mph - 0.00 in   Scattered Clouds
9:53 AM 41.0 °F 31.1 °F 28.0 °F 60% 30.11 in 10.0 mi NW 23.0 mph 32.2 mph N/A   Clear
10:53 AM 44.1 °F 35.0 °F 27.0 °F 51% 30.10 in 10.0 mi NW 24.2 mph 33.4 mph N/A   Clear
11:53 AM 45.0 °F 36.2 °F 25.0 °F 46% 30.11 in 10.0 mi NW 24.2 mph 32.2 mph N/A   Clear
12:53 PM 45.0 °F 36.0 °F 23.0 °F 42% 30.12 in 10.0 mi NW 25.3 mph 33.4 mph N/A   Scattered Clouds
1:53 PM 45.0 °F 36.9 °F 23.0 °F 42% 30.12 in 10.0 mi NW 20.7 mph 29.9 mph N/A   Scattered Clouds
2:53 PM 43.0 °F 36.0 °F 23.0 °F 45% 30.14 in 10.0 mi NW 13.8 mph 24.2 mph N/A   Clear
3:53 PM 46.0 °F 40.2 °F 24.1 °F 42% 30.14 in 10.0 mi NW 12.7 mph - N/A   Clear
4:53 PM 45.0 °F 38.5 °F 21.0 °F 39% 30.14 in 10.0 mi NNW 13.8 mph 21.9 mph N/A   Clear
5:53 PM 37.0 °F 31.6 °F 21.9 °F 54% 30.16 in 10.0 mi NW 6.9 mph - N/A   Clear
6:53 PM 33.1 °F 26.1 °F 24.1 °F 70% 30.18 in 10.0 mi WSW 8.1 mph - N/A   Mostly Cloudy
7:53 PM 34.0 °F 28.8 °F 25.0 °F 70% 30.19 in 10.0 mi WSW 5.8 mph - N/A   Overcast
8:53 PM 33.1 °F 27.7 °F 23.0 °F 66% 30.19 in 10.0 mi WSW 5.8 mph - N/A   Scattered Clouds
9:53 PM 30.0 °F - 23.0 °F 75% 30.19 in 10.0 mi Calm Calm - N/A   Clear
10:53 PM 34.0 °F 28.0 °F 23.0 °F 64% 30.17 in 10.0 mi SSW 6.9 mph - N/A   Mostly Cloudy
11:53 PM 33.1 °F 24.9 °F 23.0 °F 66% 30.16 in 10.0 mi SW 10.4 mph - N/A   Clear